User: anonymous
Location: NJAA Observatory
(40.6819°N, 74.8979°W)
Time: 17:23:47
(UTC-04:00)
Language:

Meteor 2-9 Rocket - Orbit

View from above orbital plane
View from above orbital plane
View from above satellite
View from above satellite

Ground track
Ground track

The orbit data is extracted from the following two-line orbital elements,

1 13719U 82116B   14106.40588655  .00000019  00000-0  28300-5 0  3950
2 13719 081.2564 054.4481 0072718 055.7695 087.9477 14.14454538616685
Epoch (UTC): 16 April 2014 09:44:28
Eccentricity: 0.0072718
inclination: 81.2564°
perigee height: 791 km
apogee height: 896 km
right ascension of ascending node: 54.4481°
argument of perigee: 55.7695°
revolutions per day: 14.14454538
mean anomaly at epoch: 87.9477°
orbit number at epoch: 61668

The dashed part of the orbit path shows where the satellite is in the earth's shadow,  

DLR